Change the Weather History Date:

Monday, May 26, 2014

  Actual Average (KCVG) Record (KCVG)
Temperature  
Mean Temperature 70 °F 66 °F  
Max Temperature 87 °F 76 °F 95 °F (1911)
Min Temperature 54 °F 56 °F 37 °F (1983)
Degree Days  
Heating Degree Days 0 2  
Month to date heating degree days 116  
Since 1 July heating degree days 4950  
Cooling Degree Days 5 4  
Month to date cooling degree days 56  
Year to date cooling degree days 74  
Growing Degree Days 20 (Base 50)    
Moisture  
Dew Point 59 °F    
Average Humidity 76    
Maximum Humidity 97    
Minimum Humidity 49    
Precipitation  
Precipitation 0.00 in 0.16 in 2.78 in (1879)
Month to date precipitation 4.13  
Year to date precipitation 17.79  
Snow  
Snow 0.00 in 0.00 in 0.00 in ()
Month to date snowfall 0.0  
Since 1 July snowfall 22.1  
Snow Depth -    
Sea Level Pressure  
Sea Level Pressure 30.09 in    
Wind  
Wind Speed 1 mph (WSW)    
Max Wind Speed 8 mph    
Max Gust Speed -    
Visibility 8 miles    
Events      
T = Trace of Precipitation, MM = Missing Value Source: NWS Daily Summary

Daily Weather History Graph

Daily Weather History Graph

Search for Another Location

Airport or City:

Trip Planner

Search our weather history database for the weather conditions in past years. The results will help you decide how hot, cold, wet, or windy it might be!

Date:

Astronomy

May. 26, 2014 Rise Set
Actual Time 6:16 AM EDT 8:54 PM EDT
Civil Twilight 5:44 AM EDT 9:25 PM EDT
Nautical Twilight 5:06 AM EDT 10:04 PM EDT
Astronomical Twilight 4:22 AM EDT 10:48 PM EDT
Moon 4:56 AM EDT (5/26) 6:56 PM EDT (5/26)
Length of Visible Light 15h 40m
Length of Day
14h 38m
Waning Crescent, 5% of the Moon is Illuminated
May 26
Waning Crescent
May 28
New
Jun 5
First Quarter
Jun 13
Full
Jun 19
Last Quarter

Hourly Weather History & Observations

Time (EDT) Temp. Heat Index Dew Point Humidity Pressure Visibility Wind Dir Wind Speed Gust Speed Precip Events Conditions
12:53 AM 57.9 °F - 53.1 °F 84% 30.11 in 10.0 mi Calm Calm - N/A   Clear
1:53 AM 57.0 °F - 54.0 °F 89% 30.12 in 9.0 mi Calm Calm - N/A   Clear
2:53 AM 55.9 °F - 54.0 °F 93% 30.12 in 6.0 mi Calm Calm - N/A   Clear
3:53 AM 55.0 °F - 53.1 °F 93% 30.11 in 5.0 mi WNW 3.5 mph - N/A   Clear
4:53 AM 55.0 °F - 53.1 °F 93% 30.12 in 4.0 mi Calm Calm - N/A   Clear
5:53 AM 54.0 °F - 53.1 °F 97% 30.12 in 7.0 mi Calm Calm - N/A   Clear
6:11 AM 55.0 °F - 53.1 °F 93% 30.14 in 1.8 mi Calm Calm - N/A   Clear
6:22 AM 55.0 °F - 53.1 °F 93% 30.14 in 1.5 mi Calm Calm - N/A   Clear
6:27 AM 54.0 °F - 53.1 °F 97% 30.14 in 2.0 mi Calm Calm - N/A   Clear
6:37 AM 55.0 °F - 53.1 °F 93% 30.14 in 4.0 mi Calm Calm - N/A   Clear
6:53 AM 55.9 °F - 55.0 °F 97% 30.14 in 5.0 mi Calm Calm - N/A   Clear
7:53 AM 62.1 °F - 57.0 °F 84% 30.15 in 8.0 mi Calm Calm - N/A   Partly Cloudy
8:53 AM 68.0 °F - 60.1 °F 76% 30.15 in 8.0 mi Calm Calm - N/A   Clear
9:53 AM 73.0 °F - 60.1 °F 64% 30.14 in 10.0 mi Calm Calm - N/A   Clear
10:53 AM 78.1 °F - 59.0 °F 52% 30.14 in 10.0 mi Calm Calm - N/A   Clear
11:53 AM 81.0 °F 81.9 °F 62.1 °F 52% 30.13 in 10.0 mi Calm Calm - N/A   Clear
1:53 PM 84.9 °F 86.6 °F 64.9 °F 51% 30.09 in 10.0 mi Variable 5.8 mph - N/A   Partly Cloudy
3:53 PM 86.0 °F 88.2 °F 66.0 °F 51% 30.05 in 10.0 mi SW 6.9 mph - N/A   Clear
4:53 PM 86.0 °F 87.6 °F 64.9 °F 49% 30.03 in 10.0 mi SW 5.8 mph - N/A   Partly Cloudy
5:53 PM 86.0 °F 87.6 °F 64.9 °F 49% 30.01 in 10.0 mi SW 8.1 mph - N/A   Clear
6:53 PM 84.0 °F 85.8 °F 64.9 °F 53% 30.00 in 10.0 mi SW 5.8 mph - N/A   Clear
7:53 PM 81.0 °F 83.0 °F 66.0 °F 60% 29.99 in 10.0 mi Variable 4.6 mph - N/A   Clear
8:53 PM 77.0 °F - 64.9 °F 66% 30.00 in 10.0 mi Calm Calm - N/A   Clear
9:53 PM 73.0 °F - 64.9 °F 76% 30.01 in 10.0 mi Calm Calm - N/A   Partly Cloudy
10:53 PM 71.1 °F - 64.9 °F 81% 30.04 in 10.0 mi Calm Calm - N/A   Clear
11:53 PM 70.0 °F - 64.9 °F 84% 30.03 in 9.0 mi Calm Calm - N/A   Clear